KD8CJ Weather Reports


time (UTC)temp
C
wind
direction
speed
KPH
gust
KPH
rain 1hr
cm
rain 24hr
cm
rain mn
cm
humidity
%
barometer
mb
20260508214522 16 342 0.0 3.2 0.00 0.00 0.00 60 1008.8
20260508213029 15 242 0.0 1.6 0.00 0.00 0.00 57 1009.0
20260508211523 16 240 0.0 3.2 0.00 0.00 0.00 58 1009.1
20260508210020 15 34 0.0 3.2 0.00 0.00 0.00 58 1009.2
20260508204520 15 278 0.0 1.6 0.00 0.00 0.00 59 1009.5
20260508203020 15 278 0.0 1.6 0.00 0.00 0.00 56 1010.0
20260508201518 15 262 0.0 3.2 0.00 0.00 0.00 59 1010.2
20260508200036 15 252 1.6 4.8 0.00 0.00 0.00 58 1010.4
20260508194520 15 239 1.6 4.8 0.00 0.00 0.00 57 1010.7
20260508193021 16 326 1.6 4.8 0.00 0.00 0.00 55 1010.8
20260508191520 15 278 1.6 3.2 0.00 0.00 0.00 59 1011.0
20260508190022 14 307 1.6 6.4 0.00 0.00 0.00 61 1011.2
20260508184527 13 248 0.0 4.8 0.00 0.00 0.00 64 1011.8
20260508183022 12 260 0.0 1.6 0.00 0.00 0.00 65 1012.1
20260508181524 12 266 0.0 1.6 0.00 0.00 0.00 67 1012.5
20260508180026 12 229 0.0 3.2 0.00 0.00 0.00 66 1012.8
20260508174525 12 294 0.0 1.6 0.00 0.00 0.00 66 1012.6
20260508173011 12 243 1.6 4.8 0.00 0.00 0.00 64 1012.6
20260508171528 12 261 0.0 8.0 0.00 0.00 0.00 64 1012.4
20260508170016 13 273 0.0 3.2 0.00 0.00 0.00 66 1012.5
20260508164518 13 237 1.6 6.4 0.00 0.00 0.00 62 1012.6
20260508163009 13 253 0.0 4.8 0.00 0.00 0.00 59 1012.5
20260508161514 13 280 1.6 4.8 0.00 0.00 0.00 57 1012.5
20260508160020 14 273 3.2 9.7 0.00 0.00 0.00 57 1012.8
20260508154516 13 268 1.6 9.7 0.00 0.00 0.00 55 1012.9
20260508153015 14 173 1.6 9.7 0.00 0.00 0.00 54 1012.8
20260508151511 15 276 1.6 9.7 0.00 0.00 0.00 54 1012.7
20260508150020 15 275 1.6 8.0 0.00 0.00 0.00 56 1012.7
20260508144536 15 271 1.6 17.7 0.00 0.00 0.00 54 1012.7
20260508143028 15 260 0.0 6.4 0.00 0.00 0.00 57 1012.4
20260508141524 13 258 1.6 6.4 0.00 0.00 0.00 57 1012.5
20260508140009 13 265 3.2 8.0 0.00 0.00 0.00 55 1012.7
20260508134513 13 257 3.2 8.0 0.00 0.00 0.00 57 1012.8
20260508133021 13 290 1.6 12.9 0.00 0.00 0.00 58 1012.9
20260508131522 13 271 1.6 6.4 0.00 0.00 0.00 57 1013.0
20260508130025 12 296 1.6 4.8 0.00 0.00 0.00 59 1012.9
20260508124514 11 266 3.2 8.0 0.00 0.00 0.00 62 1013.0
20260508123021 10 266 1.6 4.8 0.00 0.00 0.00 66 1013.0
20260508121526 9 236 1.6 3.2 0.00 0.00 0.00 69 1013.0
20260508120023 8 247 0.0 4.8 0.00 0.00 0.00 72 1013.0
20260508114531 7 137 0.0 3.2 0.00 0.00 0.00 75 1012.9
20260508113018 6 268 0.0 1.6 0.00 0.00 0.00 80 1012.9
20260508111519 5 293 0.0 0.0 0.00 0.00 0.00 83 1012.7
20260508110023 6 294 0.0 1.6 0.00 0.00 0.00 82 1012.7
20260508104522 6 263 0.0 4.8 0.00 0.00 0.00 80 1012.4
20260508103021 6 274 0.0 1.6 0.00 0.00 0.00 82 1012.3
20260508101514 6 278 1.6 1.6 0.00 0.00 0.00 84 1012.2
20260508100018 6 265 0.0 3.2 0.00 0.00 0.00 84 1012.7
20260508094521 5 346 0.0 0.0 0.00 0.00 0.00 84 1012.4
20260508093025 6 346 0.0 0.0 0.00 0.00 0.00 84 1012.6
20260508091528 6 345 0.0 0.0 0.00 0.00 0.00 84 1013.1
20260508090033 6 346 0.0 0.0 0.00 0.00 0.00 84 1012.7
20260508084519 6 346 0.0 0.0 0.00 0.00 0.00 83 1012.5
20260508083006 7 346 0.0 0.0 0.00 0.00 0.00 80 1012.4
20260508081510 7 253 0.0 6.4 0.00 0.00 0.00 76 1012.7
20260508080012 6 176 1.6 6.4 0.00 0.00 0.00 76 1012.7
20260508074518 6 269 0.0 1.6 0.00 0.00 0.00 78 1013.1
20260508073022 6 269 0.0 1.6 0.00 0.00 0.00 80 1013.0
20260508071504 6 269 0.0 0.0 0.00 0.00 0.00 77 1013.1
20260508070009 6 269 0.0 1.6 0.00 0.00 0.00 79 1013.2
20260508064542 6 269 0.0 1.6 0.00 0.00 0.00 77 1013.0
20260508063017 6 269 0.0 1.6 0.00 0.00 0.00 74 1013.5
20260508061522 6 266 0.0 1.6 0.00 0.00 0.00 72 1013.1
20260508060004 6 289 0.0 1.6 0.00 0.00 0.00 71 1013.0
20260508054508 6 290 0.0 1.6 0.00 0.00 0.00 73 1013.1
20260508053015 5 290 0.0 0.0 0.00 0.00 0.00 78 1013.2
20260508051525 5 290 0.0 0.0 0.00 0.00 0.00 77 1013.4
20260508050032 6 290 0.0 0.0 0.00 0.00 0.00 76 1013.3
20260508044508 6 290 0.0 1.6 0.00 0.00 0.00 76 1013.2
20260508043013 6 290 0.0 0.0 0.00 0.00 0.00 75 1013.5
20260508041515 6 290 0.0 0.0 0.00 0.00 0.00 77 1013.6
20260508040025 6 290 0.0 1.6 0.00 0.00 0.00 75 1013.5
20260508034528 6 290 0.0 0.0 0.00 0.00 0.00 76 1013.4
20260508033006 6 290 0.0 0.0 0.00 0.00 0.00 76 1013.4
20260508031513 6 290 0.0 0.0 0.00 0.00 0.00 76 1013.4
20260508030020 6 352 0.0 0.0 0.00 0.00 0.00 74 1013.5
20260508024523 6 352 0.0 0.0 0.00 0.00 0.00 74 1013.3
20260508023026 5 352 0.0 0.0 0.00 0.00 0.00 73 1013.3
20260508021507 6 352 0.0 0.0 0.00 0.00 0.00 72 1013.3
20260508020015 6 352 0.0 0.0 0.00 0.00 0.00 68 1013.1
20260508014522 6 352 0.0 0.0 0.00 0.00 0.00 66 1013.2
20260508013026 7 352 0.0 0.0 0.00 0.00 0.00 65 1013.0
20260508011535 7 352 0.0 0.0 0.00 0.00 0.00 62 1012.7
20260508010020 7 352 0.0 0.0 0.00 0.00 0.00 62 1012.6
20260508004530 8 352 0.0 0.0 0.00 0.00 0.00 58 1012.7
20260508003020 8 352 0.0 0.0 0.00 0.00 0.00 56 1012.5
20260508001529 10 352 0.0 0.0 0.00 0.00 0.00 54 1012.4
20260508000026 11 251 0.0 3.2 0.00 0.00 0.00 47 1012.4
20260507234533 11 265 0.0 4.8 0.00 0.00 0.00 44 1012.2
20260507233023 12 340 0.0 4.8 0.00 0.00 0.00 45 1012.2
20260507231520 12 114 1.6 8.0 0.00 0.00 0.00 43 1012.2
20260507230023 12 226 1.6 4.8 0.00 0.00 0.00 42 1012.3
20260507224528 13 128 1.6 6.4 0.00 0.00 0.00 40 1012.4
20260507223027 14 257 1.6 11.3 0.00 0.00 0.00 41 1012.4
20260507221518 14 262 1.6 11.3 0.00 0.00 0.00 38 1012.4
20260507220024 13 274 4.8 17.7 0.00 0.00 0.00 39 1012.4